QPF
0.00 0.00 0.00 0.00 0.00 0.00 0.00 0.00 0.00 0.00 0.00 0.00 0.00 0.00 0.00 0.00 0.00 0.00 0.00 0.00 0.00 0.00 0.00 0.00 0.00 0.00 0.00 0.00 0.00 0.00 0.00 0.00 0.00 0.00 0.00 0.00 0.00 0.00 0.00 0.00 0.00 0.00 0.00 0.00
0.00 0.00 0.00 0.00 0.00 0.00 0.00 0.00 0.00 0.00 0.00 0.00 0.00 0.00 0.00 0.00 0.00 0.00 0.00 0.00 0.00 0.00 0.00 0.00 0.00 0.00 0.00 0.00 0.00 0.00 0.00 0.00 0.00 0.00 0.00 0.00 0.00 0.00 0.00 0.00 0.00 0.00 0.00 0.00
0.00 0.00 0.00 0.00 0.00 0.00 0.00 0.00 0.00 0.00 0.00 0.00 0.00 0.00 0.00 0.00 0.00 0.00 0.00 0.00 0.00 0.00 0.00 0.00 0.00 0.00 0.00 0.00 0.00 0.00 0.00 0.00 0.00 0.00 0.01 0.01 0.02 0.02 0.01 0.01 0.01 0.01 0.01 0.01
0.00 0.00 0.00 0.00 0.00 0.00 0.00 0.00 0.00 0.00 0.00 0.00 0.00 0.00 0.00 0.00 0.00 0.00 0.00 0.00 0.00 0.00 0.00 0.00 0.00 0.00 0.00 0.00 0.00 0.00 0.00 0.01 0.01 0.02 0.03 0.04 0.05 0.05 0.05 0.05 0.04 0.03 0.02 0.02
0.00 0.00 0.00 0.00 0.00 0.00 0.00 0.00 0.00 0.00 0.00 0.00 0.00 0.00 0.00 0.00 0.00 0.00 0.00 0.00 0.00 0.00 0.00 0.00 0.00 0.00 0.00 0.00 0.00 0.00 0.01 0.01 0.02 0.03 0.04 0.05 0.07 0.07 0.08 0.08 0.07 0.05 0.04 0.03
0.00 0.00 0.00 0.00 0.00 0.00 0.00 0.00 0.00 0.00 0.00 0.00 0.00 0.00 0.00 0.00 0.00 0.00 0.00 0.00 0.00 0.00 0.00 0.00 0.00 0.00 0.00 0.00 0.00 0.01 0.01 0.02 0.03 0.04 0.05 0.06 0.07 0.08 0.09 0.09 0.10 0.08 0.06 0.04
0.00 0.00 0.00 0.00 0.00 0.00 0.00 0.00 0.00 0.00 0.00 0.00 0.00 0.00 0.00 0.00 0.00 0.00 0.00 0.00 0.00 0.00 0.00 0.00 0.00 0.00 0.00 0.00 0.01 0.01 0.02 0.02 0.03 0.04 0.05 0.06 0.07 0.06 0.06 0.06 0.06 0.07 0.07 0.05
0.00 0.00 0.00 0.00 0.00 0.00 0.00 0.00 0.00 0.00 0.00 0.00 0.00 0.00 0.00 0.00 0.00 0.00 0.00 0.00 0.00 0.00 0.00 0.00 0.00 0.00 0.00 0.00 0.00 0.01 0.02 0.03 0.04 0.05 0.07 0.08 0.09 0.08 0.06 0.05 0.04 0.04 0.04 0.04
0.00 0.00 0.00 0.00 0.00 0.00 0.00 0.00 0.00 0.00 0.00 0.00 0.00 0.00 0.00 0.00 0.00 0.00 0.00 0.00 0.00 0.00 0.00 0.00 0.00 0.00 0.00 0.00 0.00 0.02 0.03 0.04 0.05 0.06 0.09 0.11 0.12 0.11 0.09 0.07 0.05 0.03 0.02 0.02
0.00 0.00 0.00 0.00 0.00 0.00 0.00 0.00 0.00 0.00 0.00 0.00 0.00 0.00 0.00 0.00 0.00 0.00 0.00 0.00 0.00 0.00 0.00 0.00 0.00 0.00 0.00 0.00 0.01 0.03 0.05 0.05 0.05 0.06 0.07 0.08 0.08 0.08 0.07 0.06 0.05 0.04 0.03 0.02
0.00 0.00 0.00 0.00 0.00 0.00 0.00 0.00 0.00 0.00 0.00 0.00 0.00 0.00 0.00 0.00 0.00 0.00 0.00 0.00 0.00 0.00 0.00 0.00 0.00 0.00 0.00 0.00 0.02 0.04 0.05 0.05 0.06 0.05 0.04 0.04 0.04 0.04 0.04 0.04 0.03 0.03 0.02 0.01
0.00 0.00 0.00 0.00 0.00 0.00 0.00 0.00 0.00 0.00 0.00 0.00 0.00 0.00 0.00 0.00 0.00 0.00 0.00 0.00 0.00 0.00 0.00 0.00 0.00 0.00 0.00 0.01 0.03 0.05 0.06 0.05 0.05 0.04 0.03 0.03 0.03 0.03 0.04 0.04 0.03 0.03 0.02 0.01
0.00 0.00 0.00 0.00 0.00 0.00 0.00 0.00 0.00 0.00 0.00 0.00 0.00 0.00 0.00 0.00 0.00 0.00 0.00 0.00 0.00 0.00 0.00 0.00 0.00 0.00 0.00 0.01 0.02 0.04 0.05 0.03 0.02 0.02 0.02 0.02 0.02 0.04 0.05 0.04 0.04 0.05 0.06 0.04
0.00 0.00 0.00 0.00 0.00 0.00 0.00 0.00 0.00 0.00 0.00 0.00 0.00 0.00 0.00 0.00 0.00 0.00 0.00 0.00 0.00 0.00 0.00 0.00 0.01 0.01 0.01 0.01 0.01 0.02 0.03 0.01 0.01 0.01 0.01 0.01 0.01 0.03 0.06 0.07 0.09 0.09 0.13 0.14
0.00 0.00 0.00 0.00 0.00 0.00 0.00 0.00 0.00 0.00 0.00 0.00 0.00 0.00 0.00 0.00 0.00 0.00 0.00 0.00 0.00 0.00 0.00 0.01 0.01 0.03 0.02 0.01 0.01 0.02 0.03 0.01 0.00 0.00 0.00 0.00 0.01 0.02 0.04 0.06 0.07 0.09 0.11 0.12
0.00 0.00 0.00 0.00 0.00 0.00 0.00 0.00 0.00 0.00 0.00 0.00 0.00 0.00 0.00 0.00 0.00 0.00 0.00 0.00 0.00 0.00 0.01 0.01 0.02 0.03 0.04 0.02 0.03 0.03 0.03 0.02 0.01 0.00 0.00 0.00 0.01 0.01 0.01 0.03 0.04 0.04 0.04 0.04
0.00 0.00 0.00 0.00 0.00 0.00 0.00 0.00 0.00 0.00 0.00 0.00 0.00 0.00 0.00 0.00 0.00 0.00 0.00 0.00 0.00 0.00 0.01 0.01 0.02 0.03 0.05 0.04 0.05 0.06 0.05 0.02 0.01 0.00 0.00 0.00 0.01 0.01 0.01 0.02 0.03 0.02 0.01 0.01
0.00 0.00 0.00 0.00 0.00 0.00 0.00 0.00 0.00 0.00 0.00 0.00 0.00 0.00 0.00 0.00 0.00 0.00 0.00 0.00 0.00 0.00 0.00 0.01 0.01 0.02 0.04 0.05 0.06 0.08 0.07 0.04 0.01 0.00 0.00 0.00 0.00 0.00 0.01 0.01 0.01 0.00 0.00 0.00
0.00 0.00 0.00 0.00 0.00 0.00 0.00 0.00 0.00 0.00 0.00 0.00 0.00 0.00 0.00 0.00 0.00 0.00 0.00 0.00 0.00 0.00 0.01 0.00 0.01 0.02 0.03 0.05 0.07 0.07 0.08 0.06 0.03 0.01 0.00 0.00 0.00 0.00 0.00 0.00 0.01 0.01 0.01 0.01
0.00 0.00 0.00 0.00 0.00 0.00 0.00 0.00 0.00 0.00 0.00 0.00 0.00 0.00 0.00 0.00 0.00 0.00 0.00 0.00 0.00 0.00 0.00 0.00 0.00 0.00 0.01 0.03 0.06 0.05 0.07 0.06 0.04 0.02 0.01 0.00 0.00 0.00 0.00 0.00 0.01 0.01 0.02 0.02
0.00 0.00 0.00 0.00 0.00 0.00 0.00 0.00 0.00 0.00 0.00 0.00 0.00 0.00 0.00 0.00 0.00 0.00 0.00 0.00 0.00 0.00 0.00 0.00 0.00 0.00 0.00 0.02 0.03 0.03 0.04 0.05 0.04 0.04 0.02 0.01 0.00 0.00 0.00 0.00 0.00 0.00 0.01 0.02
0.00 0.00 0.00 0.00 0.00 0.00 0.00 0.00 0.00 0.00 0.00 0.00 0.00 0.00 0.00 0.00 0.00 0.00 0.00 0.00 0.00 0.00 0.00 0.00 0.00 0.00 0.00 0.01 0.01 0.01 0.02 0.04 0.04 0.04 0.02 0.01 0.00 0.00 0.00 0.00 0.00 0.00 0.01 0.01
0.00 0.00 0.00 0.00 0.00 0.00 0.00 0.00 0.00 0.00 0.00 0.00 0.00 0.00 0.00 0.00 0.00 0.00 0.00 0.00 0.00 0.00 0.00 0.00 0.00 0.00 0.00 0.00 0.00 0.01 0.01 0.02 0.04 0.04 0.02 0.01 0.00 0.00 0.00 0.00 0.00 0.00 0.00 0.00
0.00 0.00 0.00 0.00 0.00 0.00 0.00 0.00 0.00 0.00 0.00 0.00 0.00 0.00 0.00 0.00 0.00 0.00 0.00 0.00 0.00 0.00 0.00 0.00 0.00 0.00 0.00 0.00 0.00 0.00 0.00 0.00 0.01 0.02 0.02 0.02 0.00 0.00 0.00 0.00 0.00 0.00 0.00 0.00
0.01 0.01 0.01 0.00 0.00 0.00 0.00 0.00 0.00 0.00 0.00 0.00 0.00 0.00 0.00 0.00 0.00 0.00 0.00 0.00 0.00 0.00 0.00 0.01 0.01 0.01 0.00 0.00 0.00 0.00 0.00 0.00 0.00 0.01 0.01 0.01 0.01 0.00 0.00 0.00 0.00 0.00 0.00 0.00
0.01 0.01 0.01 0.00 0.00 0.00 0.00 0.00 0.00 0.00 0.00 0.00 0.00 0.00 0.00 0.00 0.00 0.00 0.00 0.00 0.00 0.00 0.00 0.00 0.00 0.01 0.00 0.00 0.00 0.00 0.01 0.00 0.00 0.00 0.00 0.00 0.00 0.00 0.00 0.00 0.00 0.00 0.00 0.00
0.01 0.01 0.02 0.01 0.01 0.01 0.00 0.00 0.00 0.00 0.00 0.00 0.00 0.00 0.00 0.00 0.00 0.00 0.00 0.00 0.00 0.00 0.00 0.00 0.00 0.00 0.00 0.00 0.00 0.01 0.01 0.00 0.00 0.00 0.00 0.00 0.00 0.00 0.00 0.00 0.00 0.00 0.00 0.00
MSLP
1017.29 1017.67 1018.03 1018.36 1018.65 1018.90 1019.07 1019.16 1019.16 1019.05 1018.85 1018.56 1018.20 1017.80 1017.36 1016.92 1016.47 1016.02 1015.57 1015.10 1014.62 1014.13 1013.62 1013.10 1012.58 1012.06 1011.56 1011.07 1010.58 1010.10 1009.62 1009.12 1008.60 1008.08 1007.57 1007.08 1006.64 1006.26 1005.98 1005.79 1005.70 1005.70 1005.77 1005.89
1017.82 1018.17 1018.44 1018.64 1018.77 1018.84 1018.85 1018.80 1018.70 1018.54 1018.34 1018.08 1017.78 1017.44 1017.07 1016.66 1016.23 1015.77 1015.28 1014.77 1014.26 1013.74 1013.22 1012.72 1012.24 1011.77 1011.33 1010.88 1010.43 1009.95 1009.44 1008.89 1008.31 1007.71 1007.12 1006.55 1006.04 1005.62 1005.30 1005.09 1004.99 1004.99 1005.06 1005.19
1018.32 1018.61 1018.79 1018.86 1018.84 1018.76 1018.62 1018.46 1018.28 1018.09 1017.89 1017.67 1017.43 1017.15 1016.83 1016.46 1016.04 1015.56 1015.05 1014.50 1013.95 1013.40 1012.87 1012.37 1011.91 1011.47 1011.05 1010.63 1010.19 1009.71 1009.17 1008.59 1007.97 1007.32 1006.67 1006.07 1005.53 1005.09 1004.75 1004.54 1004.43 1004.42 1004.50 1004.62
1018.75 1018.95 1019.02 1018.97 1018.83 1018.62 1018.38 1018.14 1017.91 1017.70 1017.51 1017.33 1017.14 1016.91 1016.64 1016.30 1015.88 1015.40 1014.86 1014.28 1013.69 1013.11 1012.56 1012.04 1011.57 1011.14 1010.72 1010.30 1009.85 1009.36 1008.80 1008.19 1007.54 1006.87 1006.21 1005.59 1005.05 1004.62 1004.29 1004.08 1003.99 1003.98 1004.04 1004.15
1019.03 1019.12 1019.08 1018.93 1018.68 1018.39 1018.08 1017.79 1017.54 1017.33 1017.17 1017.02 1016.87 1016.69 1016.46 1016.14 1015.74 1015.25 1014.69 1014.09 1013.46 1012.85 1012.27 1011.73 1011.24 1010.78 1010.34 1009.90 1009.43 1008.90 1008.33 1007.70 1007.03 1006.35 1005.70 1005.09 1004.57 1004.16 1003.86 1003.67 1003.58 1003.58 1003.64 1003.73
1019.08 1019.06 1018.92 1018.67 1018.36 1018.02 1017.68 1017.38 1017.13 1016.95 1016.81 1016.70 1016.60 1016.46 1016.25 1015.95 1015.56 1015.07 1014.51 1013.88 1013.24 1012.60 1011.99 1011.42 1010.89 1010.40 1009.93 1009.45 1008.94 1008.39 1007.78 1007.14 1006.46 1005.79 1005.14 1004.56 1004.07 1003.68 1003.40 1003.23 1003.16 1003.16 1003.21 1003.29
1018.85 1018.72 1018.49 1018.19 1017.84 1017.49 1017.16 1016.88 1016.66 1016.51 1016.42 1016.35 1016.28 1016.17 1015.98 1015.71 1015.33 1014.84 1014.28 1013.65 1012.99 1012.34 1011.70 1011.10 1010.54 1010.02 1009.50 1008.98 1008.43 1007.85 1007.22 1006.56 1005.88 1005.21 1004.58 1004.01 1003.54 1003.17 1002.90 1002.74 1002.67 1002.67 1002.71 1002.79
1018.33 1018.10 1017.81 1017.48 1017.14 1016.81 1016.53 1016.30 1016.14 1016.04 1015.99 1015.96 1015.92 1015.83 1015.66 1015.40 1015.03 1014.56 1014.00 1013.37 1012.72 1012.05 1011.41 1010.79 1010.20 1009.63 1009.08 1008.52 1007.94 1007.33 1006.68 1006.01 1005.32 1004.66 1004.03 1003.48 1003.01 1002.64 1002.38 1002.21 1002.12 1002.11 1002.14 1002.22
1017.55 1017.26 1016.95 1016.63 1016.33 1016.06 1015.84 1015.69 1015.60 1015.56 1015.56 1015.56 1015.54 1015.46 1015.30 1015.05 1014.69 1014.22 1013.68 1013.06 1012.41 1011.75 1011.10 1010.46 1009.86 1009.27 1008.68 1008.10 1007.49 1006.86 1006.20 1005.52 1004.84 1004.18 1003.56 1003.01 1002.53 1002.15 1001.86 1001.67 1001.56 1001.52 1001.54 1001.61
1016.60 1016.28 1015.98 1015.71 1015.47 1015.30 1015.18 1015.11 1015.10 1015.12 1015.16 1015.19 1015.18 1015.11 1014.95 1014.69 1014.33 1013.87 1013.34 1012.73 1012.09 1011.44 1010.78 1010.14 1009.52 1008.91 1008.31 1007.70 1007.08 1006.45 1005.79 1005.12 1004.45 1003.81 1003.20 1002.64 1002.15 1001.75 1001.43 1001.20 1001.04 1000.97 1000.96 1001.02
1015.56 1015.26 1015.01 1014.81 1014.68 1014.61 1014.59 1014.63 1014.69 1014.78 1014.85 1014.89 1014.88 1014.80 1014.63 1014.36 1013.99 1013.53 1013.00 1012.41 1011.77 1011.12 1010.46 1009.81 1009.18 1008.56 1007.94 1007.33 1006.71 1006.08 1005.44 1004.80 1004.16 1003.54 1002.94 1002.40 1001.91 1001.48 1001.13 1000.85 1000.66 1000.54 1000.50 1000.53
1014.52 1014.27 1014.10 1014.01 1014.00 1014.05 1014.14 1014.27 1014.41 1014.54 1014.64 1014.68 1014.66 1014.56 1014.36 1014.07 1013.69 1013.23 1012.69 1012.10 1011.46 1010.81 1010.15 1009.49 1008.84 1008.20 1007.57 1006.96 1006.34 1005.73 1005.13 1004.52 1003.93 1003.35 1002.79 1002.27 1001.79 1001.36 1000.99 1000.69 1000.45 1000.29 1000.21 1000.21
1013.54 1013.37 1013.30 1013.33 1013.44 1013.61 1013.82 1014.03 1014.23 1014.40 1014.51 1014.55 1014.51 1014.38 1014.16 1013.84 1013.44 1012.97 1012.42 1011.82 1011.18 1010.52 1009.84 1009.16 1008.49 1007.83 1007.19 1006.57 1005.96 1005.37 1004.80 1004.24 1003.70 1003.18 1002.69 1002.21 1001.77 1001.36 1001.00 1000.69 1000.43 1000.24 1000.12 1000.09
1012.63 1012.56 1012.61 1012.77 1013.00 1013.28 1013.58 1013.87 1014.12 1014.31 1014.42 1014.45 1014.39 1014.23 1013.98 1013.65 1013.23 1012.74 1012.19 1011.58 1010.93 1010.25 1009.56 1008.85 1008.15 1007.46 1006.80 1006.16 1005.55 1004.97 1004.43 1003.93 1003.45 1003.00 1002.57 1002.17 1001.79 1001.43 1001.10 1000.81 1000.55 1000.35 1000.21 1000.14
1011.80 1011.84 1012.01 1012.28 1012.63 1013.01 1013.39 1013.74 1014.02 1014.22 1014.34 1014.35 1014.26 1014.08 1013.81 1013.46 1013.04 1012.54 1011.99 1011.38 1010.72 1010.03 1009.30 1008.57 1007.83 1007.10 1006.40 1005.73 1005.11 1004.54 1004.02 1003.55 1003.13 1002.75 1002.41 1002.09 1001.79 1001.50 1001.23 1000.98 1000.75 1000.55 1000.41 1000.31
1011.04 1011.19 1011.47 1011.85 1012.29 1012.75 1013.19 1013.58 1013.88 1014.09 1014.20 1014.20 1014.10 1013.91 1013.63 1013.27 1012.85 1012.36 1011.81 1011.21 1010.55 1009.84 1009.10 1008.33 1007.56 1006.78 1006.03 1005.33 1004.67 1004.09 1003.57 1003.13 1002.75 1002.43 1002.16 1001.92 1001.71 1001.51 1001.31 1001.13 1000.95 1000.78 1000.65 1000.54
1010.36 1010.60 1010.98 1011.44 1011.95 1012.47 1012.95 1013.37 1013.68 1013.90 1014.00 1013.99 1013.89 1013.69 1013.41 1013.07 1012.66 1012.19 1011.66 1011.07 1010.42 1009.72 1008.96 1008.17 1007.36 1006.54 1005.74 1004.99 1004.29 1003.67 1003.14 1002.69 1002.34 1002.05 1001.84 1001.67 1001.54 1001.42 1001.31 1001.20 1001.08 1000.97 1000.85 1000.76
1009.76 1010.08 1010.53 1011.05 1011.62 1012.17 1012.67 1013.10 1013.43 1013.64 1013.74 1013.73 1013.63 1013.44 1013.18 1012.86 1012.47 1012.03 1011.53 1010.97 1010.34 1009.65 1008.89 1008.09 1007.25 1006.40 1005.56 1004.75 1004.01 1003.35 1002.78 1002.32 1001.95 1001.69 1001.50 1001.38 1001.30 1001.25 1001.21 1001.17 1001.12 1001.06 1000.99 1000.91
1009.27 1009.65 1010.14 1010.70 1011.29 1011.86 1012.37 1012.80 1013.13 1013.35 1013.45 1013.45 1013.36 1013.18 1012.94 1012.65 1012.30 1011.89 1011.43 1010.90 1010.30 1009.63 1008.89 1008.09 1007.25 1006.38 1005.51 1004.67 1003.88 1003.18 1002.57 1002.06 1001.67 1001.39 1001.21 1001.10 1001.06 1001.05 1001.06 1001.08 1001.08 1001.07 1001.03 1000.98
1008.89 1009.30 1009.81 1010.38 1010.98 1011.55 1012.07 1012.50 1012.84 1013.06 1013.17 1013.19 1013.11 1012.96 1012.74 1012.47 1012.15 1011.78 1011.35 1010.86 1010.29 1009.65 1008.94 1008.16 1007.33 1006.47 1005.59 1004.73 1003.92 1003.18 1002.53 1001.99 1001.56 1001.25 1001.04 1000.92 1000.88 1000.89 1000.92 1000.97 1001.00 1001.03 1001.02 1000.99
1008.61 1009.02 1009.53 1010.10 1010.69 1011.26 1011.78 1012.22 1012.56 1012.80 1012.93 1012.96 1012.91 1012.78 1012.59 1012.34 1012.05 1011.70 1011.30 1010.83 1010.30 1009.70 1009.02 1008.28 1007.48 1006.64 1005.78 1004.93 1004.12 1003.37 1002.69 1002.12 1001.65 1001.30 1001.05 1000.90 1000.83 1000.82 1000.85 1000.90 1000.95 1000.98 1000.99 1000.97
1008.38 1008.78 1009.28 1009.83 1010.41 1010.97 1011.50 1011.94 1012.30 1012.57 1012.73 1012.79 1012.77 1012.66 1012.49 1012.26 1011.98 1011.65 1011.26 1010.81 1010.31 1009.73 1009.10 1008.40 1007.64 1006.85 1006.04 1005.23 1004.44 1003.70 1003.03 1002.44 1001.94 1001.55 1001.26 1001.07 1000.95 1000.90 1000.90 1000.93 1000.96 1000.99 1001.00 1000.98
1008.16 1008.52 1008.99 1009.52 1010.09 1010.65 1011.18 1011.65 1012.05 1012.35 1012.55 1012.66 1012.67 1012.59 1012.44 1012.23 1011.95 1011.62 1011.23 1010.79 1010.30 1009.75 1009.15 1008.50 1007.80 1007.07 1006.32 1005.57 1004.83 1004.13 1003.48 1002.90 1002.39 1001.98 1001.65 1001.41 1001.24 1001.14 1001.09 1001.07 1001.07 1001.07 1001.06 1001.03
1007.86 1008.19 1008.61 1009.12 1009.67 1010.25 1010.80 1011.31 1011.75 1012.11 1012.37 1012.53 1012.59 1012.55 1012.42 1012.22 1011.95 1011.61 1011.22 1010.77 1010.28 1009.75 1009.18 1008.57 1007.93 1007.27 1006.59 1005.91 1005.24 1004.60 1004.00 1003.44 1002.95 1002.52 1002.16 1001.88 1001.66 1001.50 1001.39 1001.31 1001.26 1001.23 1001.19 1001.14
1007.44 1007.72 1008.11 1008.59 1009.13 1009.72 1010.30 1010.86 1011.37 1011.80 1012.13 1012.37 1012.49 1012.50 1012.41 1012.22 1011.96 1011.62 1011.21 1010.76 1010.27 1009.74 1009.19 1008.62 1008.03 1007.43 1006.83 1006.23 1005.64 1005.07 1004.52 1004.01 1003.53 1003.11 1002.74 1002.42 1002.15 1001.94 1001.76 1001.63 1001.53 1001.44 1001.37 1001.30
1006.88 1007.10 1007.44 1007.90 1008.45 1009.05 1009.68 1010.29 1010.88 1011.39 1011.81 1012.13 1012.33 1012.41 1012.37 1012.22 1011.97 1011.64 1011.24 1010.78 1010.28 1009.76 1009.22 1008.68 1008.13 1007.59 1007.05 1006.52 1006.01 1005.50 1005.02 1004.55 1004.11 1003.70 1003.31 1002.97 1002.67 1002.40 1002.17 1001.98 1001.82 1001.69 1001.58 1001.48
1006.18 1006.34 1006.65 1007.08 1007.62 1008.25 1008.92 1009.60 1010.26 1010.87 1011.39 1011.81 1012.10 1012.26 1012.29 1012.20 1011.99 1011.68 1011.30 1010.85 1010.36 1009.84 1009.32 1008.80 1008.28 1007.78 1007.30 1006.83 1006.37 1005.92 1005.49 1005.06 1004.65 1004.25 1003.87 1003.50 1003.17 1002.86 1002.58 1002.34 1002.13 1001.95 1001.81 1001.70
Thickness
5698 5700 5696 5687 5683 5680 5671 5663 5646 5646 5645 5647 5643 5637 5634 5630 5625 5619 5613 5607 5600 5593 5589 5586 5583 5580 5576 5571 5565 5558 5551 5544 5539 5535 5532 5531 5532 5533 5535 5536 5539 5541 5543 5545
5694 5695 5690 5681 5679 5676 5670 5664 5655 5647 5643 5647 5641 5632 5625 5622 5618 5611 5607 5602 5595 5589 5586 5583 5579 5574 5568 5560 5552 5543 5535 5528 5522 5516 5513 5512 5512 5514 5517 5520 5523 5527 5531 5535
5679 5688 5681 5668 5673 5671 5667 5661 5652 5638 5639 5641 5634 5627 5620 5619 5614 5606 5600 5593 5587 5583 5580 5576 5570 5562 5555 5547 5539 5530 5521 5513 5506 5500 5496 5494 5493 5495 5498 5503 5508 5514 5520 5525
5673 5677 5665 5669 5683 5678 5669 5661 5654 5646 5640 5635 5630 5626 5617 5612 5604 5598 5592 5586 5580 5576 5572 5566 5559 5551 5543 5534 5526 5516 5507 5499 5491 5483 5478 5476 5474 5476 5480 5486 5493 5501 5509 5516
5662 5664 5661 5670 5678 5673 5661 5652 5653 5644 5637 5632 5629 5621 5616 5613 5604 5595 5586 5578 5572 5568 5564 5557 5550 5541 5532 5523 5513 5503 5493 5483 5473 5465 5460 5457 5457 5459 5464 5470 5478 5487 5497 5505
5659 5661 5655 5667 5679 5676 5661 5646 5652 5642 5634 5627 5618 5606 5609 5607 5596 5587 5578 5571 5566 5562 5557 5551 5544 5534 5523 5513 5503 5493 5482 5470 5459 5451 5446 5444 5444 5446 5451 5457 5466 5475 5484 5493
5656 5654 5659 5675 5678 5669 5646 5644 5653 5643 5634 5625 5612 5604 5602 5595 5588 5580 5572 5567 5563 5558 5553 5547 5539 5529 5517 5507 5497 5487 5475 5464 5454 5446 5440 5438 5438 5440 5444 5450 5457 5465 5474 5482
5648 5651 5658 5680 5670 5658 5655 5658 5651 5643 5635 5625 5615 5607 5599 5592 5584 5577 5571 5566 5561 5556 5551 5545 5536 5525 5514 5504 5495 5484 5473 5463 5454 5446 5440 5439 5437 5439 5441 5445 5450 5457 5463 5472
5664 5667 5679 5678 5673 5671 5663 5654 5649 5640 5633 5623 5613 5604 5595 5586 5580 5574 5568 5564 5559 5553 5548 5542 5533 5522 5512 5503 5494 5485 5475 5466 5458 5450 5443 5440 5438 5440 5442 5444 5447 5453 5458 5466
5669 5675 5678 5677 5675 5671 5664 5654 5649 5640 5629 5620 5609 5598 5588 5582 5578 5573 5568 5563 5557 5551 5546 5541 5533 5523 5512 5502 5494 5486 5478 5469 5462 5455 5449 5445 5443 5443 5443 5445 5448 5452 5456 5462
5672 5677 5679 5677 5672 5669 5663 5655 5645 5636 5626 5616 5605 5595 5586 5581 5577 5572 5567 5561 5555 5549 5544 5540 5533 5524 5514 5505 5497 5490 5482 5474 5466 5459 5454 5450 5448 5447 5448 5449 5450 5453 5457 5461
5675 5681 5674 5673 5674 5668 5658 5650 5641 5631 5622 5613 5603 5593 5585 5579 5575 5570 5566 5560 5553 5547 5543 5539 5533 5526 5518 5508 5500 5494 5487 5479 5471 5464 5459 5456 5454 5454 5454 5454 5455 5456 5458 5462
5691 5688 5679 5678 5673 5666 5657 5648 5640 5629 5620 5611 5601 5592 5583 5577 5573 5569 5564 5558 5552 5546 5542 5539 5534 5529 5522 5512 5505 5498 5491 5485 5477 5470 5465 5462 5460 5459 5459 5461 5461 5462 5463 5466
5690 5683 5677 5674 5668 5663 5655 5647 5636 5626 5617 5607 5598 5589 5581 5575 5571 5567 5563 5558 5551 5546 5542 5539 5536 5532 5525 5517 5510 5504 5497 5492 5485 5477 5472 5467 5465 5464 5464 5465 5467 5468 5467 5468
5688 5684 5680 5675 5667 5659 5650 5640 5629 5619 5611 5604 5595 5586 5579 5574 5570 5566 5561 5556 5550 5546 5543 5541 5538 5534 5529 5523 5517 5512 5505 5499 5494 5487 5481 5476 5473 5472 5472 5472 5472 5472 5472 5472
5688 5681 5675 5668 5661 5652 5643 5635 5625 5616 5608 5601 5593 5585 5578 5572 5567 5562 5557 5552 5548 5545 5543 5540 5538 5535 5532 5529 5526 5521 5514 5509 5504 5497 5491 5486 5483 5481 5480 5479 5479 5479 5478 5477
5683 5675 5668 5661 5654 5646 5637 5630 5621 5613 5604 5597 5590 5583 5576 5570 5565 5561 5558 5553 5548 5544 5541 5538 5535 5535 5535 5534 5532 5530 5524 5517 5512 5505 5499 5494 5491 5488 5486 5485 5485 5484 5482 5481
5693 5685 5673 5663 5652 5641 5633 5627 5619 5610 5601 5594 5587 5578 5571 5565 5560 5558 5555 5552 5550 5547 5542 5536 5535 5536 5538 5538 5537 5537 5533 5526 5519 5512 5507 5502 5498 5495 5492 5490 5489 5487 5485 5483
5685 5677 5667 5658 5649 5639 5630 5623 5615 5606 5599 5590 5582 5573 5566 5560 5556 5552 5549 5547 5547 5545 5542 5537 5536 5537 5538 5539 5540 5542 5540 5534 5528 5521 5515 5509 5505 5502 5499 5496 5493 5491 5489 5488
5676 5669 5659 5650 5642 5634 5626 5620 5612 5602 5594 5586 5578 5570 5563 5558 5553 5549 5546 5543 5541 5537 5533 5533 5535 5536 5536 5538 5541 5543 5543 5540 5535 5529 5523 5517 5512 5508 5504 5501 5498 5495 5493 5493
5667 5659 5651 5643 5636 5629 5622 5615 5606 5598 5590 5582 5573 5566 5559 5554 5550 5546 5544 5544 5539 5535 5532 5532 5533 5533 5534 5536 5539 5542 5543 5543 5540 5536 5530 5525 5520 5515 5511 5507 5503 5501 5499 5499
5658 5651 5644 5637 5629 5622 5615 5607 5600 5593 5585 5577 5569 5562 5555 5551 5546 5543 5541 5538 5535 5532 5531 5531 5531 5531 5532 5535 5538 5540 5542 5543 5543 5540 5536 5531 5526 5522 5518 5514 5511 5509 5507 5506
5651 5644 5637 5631 5626 5617 5606 5597 5591 5585 5579 5572 5565 5558 5552 5547 5543 5540 5539 5535 5532 5530 5529 5530 5529 5530 5531 5534 5536 5537 5539 5541 5542 5542 5540 5536 5532 5528 5525 5522 5519 5517 5515 5514
5642 5636 5631 5626 5620 5609 5598 5590 5582 5576 5571 5567 5560 5554 5548 5544 5540 5537 5533 5531 5529 5527 5528 5527 5527 5528 5531 5532 5533 5535 5536 5537 5539 5541 5543 5542 5539 5536 5532 5529 5527 5525 5524 5522
5636 5631 5626 5621 5615 5608 5597 5586 5577 5569 5564 5560 5556 5551 5545 5540 5536 5533 5529 5528 5526 5525 5526 5526 5526 5527 5529 5530 5531 5532 5532 5533 5535 5538 5542 5544 5544 5542 5539 5537 5535 5533 5532 5531
5629 5626 5625 5623 5617 5605 5594 5583 5573 5566 5560 5557 5553 5547 5542 5538 5533 5529 5526 5524 5523 5522 5522 5523 5523 5524 5525 5527 5528 5529 5530 5531 5533 5535 5537 5541 5544 5545 5545 5544 5543 5541 5540 5539
5618 5617 5614 5610 5604 5597 5590 5582 5574 5566 5560 5556 5551 5545 5539 5534 5529 5525 5522 5521 5520 5519 5518 5518 5518 5518 5520 5522 5524 5525 5526 5528 5529 5531 5533 5537 5540 5543 5546 5548 5548 5548 5547 5546